Location: Riverside Cemetery
(38.3047°N, 99.7773°W)
Time: 10:03:14
(UTC+00:00)

Meteor 2-13 Rocket - Pass Details

Date: 19 September 2020
Orbit: 935 x 958 km, 82.5° (Epoch: 30 October)

Event Time Altitude Azimuth Distance (km) Brightness Sun altitude
Rises 02:56:21 0° 353° (N) 3,646 7.9 -26.4°
Reaches altitude 10° 02:58:51 10° 354° (N) 2,696 7.2 -26.9°
Maximum altitude 03:05:03 82° 83° (E) 968 4.3 -28.0°
Enters shadow 03:05:21 79° 129° (SE) 976 4.3 -28.0°
